H1 CPF 2 NER 2024 10 21 9 295 01 glonass138 H2 1805301 9138 43508 2024 10 21 0 0 0 2024 10 24 23 45 0 900 1 1 0 0 0 1 H9 10 0 60604 0.00000 0 4745279.463 -12915331.064 -21467106.966 10 0 60604 900.00000 0 5959006.458 -10486658.550 -22467297.271 10 0 60604 1800.00000 0 7400609.673 -8073514.040 -23030771.067 10 0 60604 2700.00000 0 9041976.395 -5740630.911 -23146694.691 10 0 60604 3600.00000 0 10843845.913 -3547073.444 -22812934.935 10 0 60604 4500.00000 0 12757299.850 -1543975.786 -22036091.115 10 0 60604 5400.00000 0 14725671.774 227373.471 -20831358.266 10 0 60604 6300.00000 0 16686796.537 1737022.858 -19222224.712 10 0 60604 7200.00000 0 18575505.637 2967365.280 -17240010.264 10 0 60604 8100.00000 0 20326264.722 3913620.878 -14923254.234 10 0 60604 9000.00000 0 21875843.544 4583777.224 -12316965.132 10 0 60604 9900.00000 0 23165907.175 4997991.201 -9471746.557 10 0 60604 10800.00000 0 24145420.656 5187479.317 -6442816.059 10 0 60604 11700.00000 0 24772766.931 5192944.444 -3288935.781 10 0 60604 12600.00000 0 25017489.763 5062606.296 -71275.483 10 0 60604 13500.00000 0 24861588.999 4849919.419 3147770.219 10 0 60604 14400.00000 0 24300314.087 4611075.436 6305787.626 10 0 60604 15300.00000 0 23342422.685 4402395.246 9341549.514 10 0 60604 16200.00000 0 22009893.436 4277721.404 12196197.325 10 0 60604 17100.00000 0 20337104.671 4285920.773 14814377.365 10 0 60604 18000.00000 0 18369512.964 4468602.881 17145309.291 10 0 60604 18900.00000 0 16161886.171 4858150.365 19143766.632 10 0 60604 19800.00000 0 13776163.947 5476144.787 20770950.802 10 0 60604 20700.00000 0 11279034.086 6332254.679 21995242.109 10 0 60604 21600.00000 0 8739324.694 7423633.428 22792813.634 10 0 60604 22500.00000 0 6225319.701 8734853.490 23148096.327 10 0 60604 23400.00000 0 3802108.424 10238381.121 23054086.357 10 0 60604 24300.00000 0 1529078.493 11895573.411 22512488.566 10 0 60604 25200.00000 0 -542344.407 13658157.596 21533692.756 10 0 60604 26100.00000 0 -2370616.538 15470132.437 20136582.551 10 0 60604 27000.00000 0 -3925576.361 17270013.553 18348179.595 10 0 60604 27900.00000 0 -5189462.859 18993329.967 16203128.936 10 0 60604 28800.00000 0 -6157409.626 20575268.001 13743034.571 10 0 60604 29700.00000 0 -6837394.293 21953352.038 11015657.108 10 0 60604 30600.00000 0 -7249645.756 23070049.514 8073988.456 10 0 60604 31500.00000 0 -7425534.521 23875190.116 4975221.216 10 0 60604 32400.00000 0 -7405993.555 24328096.599 1779632.827 10 0 60604 33300.00000 0 -7239537.109 24399336.461 -1450593.417 10 0 60604 34200.00000 0 -6979962.305 24072019.586 -4652586.725 10 0 60604 35100.00000 0 -6683831.966 23342586.165 -7764021.835 10 0 60604 36000.00000 0 -6407846.619 22221050.879 -10724341.587 10 0 60604 36900.00000 0 -6206218.385 20730692.526 -13475944.058 10 0 60604 37800.00000 0 -6128159.251 18907201.932 -15965310.185 10 0 60604 38700.00000 0 -6215591.235 16797323.982 -18144049.204 10 0 60604 39600.00000 0 -6501176.217 14457051.065 -19969841.128 10 0 60604 40500.00000 0 -7006749.354 11949444.004 -21407257.875 10 0 60604 41400.00000 0 -7742222.619 9342171.997 -22428447.391 10 0 60604 42300.00000 0 -8705004.874 6704874.623 -23013668.023 10 0 60604 43200.00000 0 -9879962.894 4106455.916 -23151663.538 10 0 60604 44100.00000 0 -11239924.958 1612422.954 -22839872.398 10 0 60604 45000.00000 0 -12746705.757 -717620.911 -22084468.070 10 0 60604 45900.00000 0 -14352609.616 -2832224.916 -20900230.388 10 0 60604 46800.00000 0 -16002349.069 -4689989.657 -19310251.048 10 0 60604 47700.00000 0 -17635298.576 -6261038.360 -17345479.390 10 0 60604 48600.00000 0 -19187989.231 -7528001.173 -15044117.487 10 0 60604 49500.00000 0 -20596740.346 -8486473.382 -12450876.305 10 0 60604 50400.00000 0 -21800318.014 -9144930.265 -9616107.292 10 0 60604 51300.00000 0 -22742509.681 -9524103.962 -6594826.098 10 0 60604 52200.00000 0 -23374507.151 -9655850.086 -3445647.088 10 0 60604 53100.00000 0 -23656998.414 -9581552.987 -229649.212 10 0 60604 54000.00000 0 -23561880.741 -9350137.805 2990805.013 10 0 60604 54900.00000 0 -23073523.299 -9015773.756 6153274.673 10 0 60604 55800.00000 0 -22189526.242 -8635365.928 9196446.549 10 0 60604 56700.00000 0 -20920944.235 -8265941.605 12061318.968 10 0 60604 57600.00000 0 -19291964.633 -7962041.402 14692340.759 10 0 60604 58500.00000 0 -17339053.175 -7773225.247 17038483.523 10 0 60604 59400.00000 0 -15109602.159 -7741798.294 19054226.904 10 0 60604 60300.00000 0 -12660136.558 -7900852.642 20700438.211 10 0 60604 61200.00000 0 -10054151.841 -8272707.546 21945129.812 10 0 60604 62100.00000 0 -7359672.380 -8867814.164 22764080.034 10 0 60604 63000.00000 0 -4646630.799 -9684171.666 23141305.804 10 0 60604 63900.00000 0 -1984176.063 -10707280.232 23069377.923 10 0 60604 64800.00000 0 561978.928 -11910634.217 22549572.696 10 0 60604 65700.00000 0 2932061.008 -13256736.272 21591856.482 10 0 60604 66600.00000 0 5074488.345 -14698591.412 20214702.763 10 0 60604 67500.00000 0 6947776.890 -16181619.826 18444744.343 10 0 60604 68400.00000 0 8522022.712 -17645909.459 16316266.363 10 0 60604 69300.00000 0 9779898.617 -19028714.683 13870548.956 10 0 60604 70200.00000 0 10717123.622 -20267096.633 11155071.363 10 0 60604 71100.00000 0 11342385.893 -21300594.236 8222592.282 10 0 60604 72000.00000 0 11676722.674 -22073813.085 5130123.973 10 0 60604 72900.00000 0 11752383.832 -22538822.357 1937820.094 10 0 60604 73800.00000 0 11611227.618 -22657257.660 -1292200.724 10 0 60604 74700.00000 0 11302717.291 -22402039.891 -4497071.893 10 0 60604 75600.00000 0 10881604.456 -21758636.392 -7614411.796 10 0 60604 76500.00000 0 10405398.376 -20725810.085 -10583547.495 10 0 60604 77400.00000 0 9931729.731 -19315824.126 -13346704.244 10 0 60604 78300.00000 0 9515721.705 -17554092.844 -15850136.637 10 0 60604 79200.00000 0 9207480.819 -15478293.319 -18045178.638 10 0 60604 80100.00000 0 9049814.506 -13136974.823 -19889191.603 10 0 60604 81000.00000 0 9076272.575 -10587724.566 -21346391.778 10 0 60604 81900.00000 0 9309595.503 -7894966.615 -22388541.479 10 0 60604 82800.00000 0 9760635.106 -5127486.162 -22995491.064 10 0 60604 83700.00000 0 10427792.820 -2355782.328 -23155561.925 10 0 60604 84600.00000 0 11296998.967 350640.449 -22865763.981 10 0 60604 85500.00000 0 12342233.462 2925930.285 -22131844.264 10 0 60605 0.00000 0 13526565.637 5310385.099 -20968166.608 10 0 60605 900.00000 0 14803669.956 7452687.866 -19397424.650 10 0 60605 1800.00000 0 16119752.191 9311785.193 -17450195.836 10 0 60605 2700.00000 0 17415807.414 10858336.960 -15164343.207 10 0 60605 3600.00000 0 18630113.565 12075675.209 -12584278.090 10 0 60605 4500.00000 0 19700856.802 12960235.409 -9760097.398 10 0 60605 5400.00000 0 20568778.545 13521443.668 -6746612.191 10 0 60605 6300.00000 0 21179733.377 13781066.261 -3602286.120 10 0 60605 7200.00000 0 21487050.543 13772050.213 -388104.193 10 0 60605 8100.00000 0 21453600.017 13536904.815 2833606.411 10 0 60605 9000.00000 0 21053476.359 13125693.049 6000380.801 10 0 60605 9900.00000 0 20273229.514 12593718.079 9050822.906 10 0 60605 10800.00000 0 19112590.573 11999002.598 11925790.896 10 0 60605 11700.00000 0 17584661.539 11399667.351 14569538.819 10 0 60605 12600.00000 0 15715560.422 10851319.259 16930792.628 10 0 60605 13500.00000 0 13543535.591 10404558.995 18963740.151 10 0 60605 14400.00000 0 11117585.259 10102712.846 20628916.325 10 0 60605 15300.00000 0 8495638.454 9979884.218 21893966.938 10 0 60605 16200.00000 0 5742371.892 10059406.833 22734276.536 10 0 60605 17100.00000 0 2926752.161 10352764.926 23133448.575 10 0 60605 18000.00000 0 119404.048 10859026.410 23083628.601 10 0 60605 18900.00000 0 -2610086.978 11564813.615 22585664.000 10 0 60605 19800.00000 0 -5195827.231 12444813.927 21649096.810 10 0 60605 20700.00000 0 -7578112.922 13462810.079 20291988.980 10 0 60605 21600.00000 0 -9705670.782 14573188.081 18540582.603 10 0 60605 22500.00000 0 -11537548.429 15722860.606 16428800.608 10 0 60605 23400.00000 0 -13044575.952 16853525.873 13997596.609 10 0 60605 24300.00000 0 -14210337.857 17904167.604 11294165.579 10 0 60605 25200.00000 0 -15031614.845 18813690.957 8371029.935 10 0 60605 26100.00000 0 -15518277.044 19523583.050 5285018.469 10 0 60605 27000.00000 0 -15692633.535 19980485.200 2096157.934 10 0 60605 27900.00000 0 -15588266.042 20138567.261 -1133500.776 10 0 60605 28800.00000 0 -15248396.728 19961602.550 -4341098.241 10 0 60605 29700.00000 0 -14723859.985 19424654.380 -7464199.303 10 0 60605 30600.00000 0 -14070765.128 18515301.680 -10442017.878 10 0 60605 31500.00000 0 -13347950.065 17234350.818 -13216608.776 10 0 60605 32400.00000 0 -12614334.944 15596002.692 -15734002.332 10 0 60605 33300.00000 0 -11926288.800 13627467.369 -17945258.987 10 0 60605 34200.00000 0 -11335121.459 11368042.107 -19807422.841 10 0 60605 35100.00000 0 -10884807.259 8867691.207 -21284355.516 10 0 60605 36000.00000 0 -10610036.915 6185187.127 -22347434.412 10 0 60605 36900.00000 0 -10534679.661 3385890.545 -22976102.280 10 0 60605 37800.00000 0 -10670720.058 539261.930 -23158258.213 10 0 60605 38700.00000 0 -11017713.689 -2283791.974 -22890483.347 10 0 60605 39600.00000 0 -11562783.928 -5013626.720 -22178097.732 10 0 60605 40500.00000 0 -12281159.215 -7584511.908 -21035048.083 10 0 60605 41400.00000 0 -13137227.597 -9937116.877 -19483629.222 10 0 60605 42300.00000 0 -14086063.728 -12020728.250 -17554045.052 10 0 60605 43200.00000 0 -15075363.797 -13795108.539 -15283817.841 10 0 60605 44100.00000 0 -16047706.896 -15231920.092 -12717057.319 10 0 60605 45000.00000 0 -16943047.740 -16315656.668 -9903603.729 10 0 60605 45900.00000 0 -17701336.014 -17044045.474 -6898061.282 10 0 60605 46800.00000 0 -18265152.298 -17427904.454 -3758740.550 10 0 60605 47700.00000 0 -18582249.843 -17490462.270 -546530.152 10 0 60605 48600.00000 0 -18607895.335 -17266170.722 2676280.602 10 0 60605 49500.00000 0 -18306910.164 -16799060.492 5847205.459 10 0 60605 50400.00000 0 -17655326.217 -16140710.035 8904768.165 10 0 60605 51300.00000 0 -16641586.238 -15347913.504 11789689.433 10 0 60605 52200.00000 0 -15267237.830 -14480146.005 14446031.207 10 0 60605 53100.00000 0 -13547091.198 -13596932.854 16822276.350 10 0 60605 54000.00000 0 -11508833.045 -12755233.310 18872323.246 10 0 60605 54900.00000 0 -9192111.516 -12006948.535 20556376.542 10 0 60605 55800.00000 0 -6647129.031 -11396658.293 21841717.190 10 0 60605 56700.00000 0 -3932800.132 -10959681.229 22703337.301 10 0 60605 57600.00000 0 -1114549.403 -10720540.156 23124427.792 10 0 60605 58500.00000 0 1738160.498 -10691896.911 23096709.460 10 0 60605 59400.00000 0 4554469.505 -10874001.869 22620600.895 10 0 60605 60300.00000 0 7264821.172 -11254681.829 21705219.544 10 0 60605 61200.00000 0 9803612.912 -11809867.606 20368215.214 10 0 60605 62100.00000 0 12111686.156 -12504640.039 18635438.326 10 0 60605 63000.00000 0 14138553.392 -13294751.402 16540448.297 10 0 60605 63900.00000 0 15844269.556 -14128558.981 14123870.571 10 0 60605 64800.00000 0 17200869.833 -14949289.955 11432613.816 10 0 60605 65700.00000 0 18193313.711 -15697542.345 8518961.769 10 0 60605 66600.00000 0 18819895.757 -16313916.326 5439556.988 10 0 60605 67500.00000 0 19092105.939 -16741664.212 2254296.260 10 0 60605 68400.00000 0 19033945.635 -16929246.208 -974840.535 10 0 60605 69300.00000 0 18680728.649 -16832682.650 -4185004.541 10 0 60605 70200.00000 0 18077418.534 -16417601.904 -7313710.449 10 0 60605 71100.00000 0 17276573.421 -15660895.917 -10300062.304 10 0 60605 72000.00000 0 16335986.273 -14551912.148 -13085947.561 10 0 60605 72900.00000 0 15316121.481 -13093130.374 -15617175.126 10 0 60605 73800.00000 0 14277457.203 -11300294.913 -17844534.443 10 0 60605 74700.00000 0 13277846.636 -9201995.987 -19724754.530 10 0 60605 75600.00000 0 12370010.213 -6838717.374 -21221344.181 10 0 60605 76500.00000 0 11599264.802 -4261389.943 -22305297.254 10 0 60605 77400.00000 0 11001585.473 -1529511.434 -22955649.831 10 0 60605 78300.00000 0 10602081.025 1291089.182 -23159879.199 10 0 60605 79200.00000 0 10413946.619 4130749.840 -22914137.768 10 0 60605 80100.00000 0 10437936.644 6918632.353 -22223318.237 10 0 60605 81000.00000 0 10662378.879 9585428.317 -21100949.590 10 0 60605 81900.00000 0 11063728.351 12066002.273 -19568926.515 10 0 60605 82800.00000 0 11607636.618 14301863.255 -17657078.023 10 0 60605 83700.00000 0 12250490.786 16243363.171 -15402583.851 10 0 60605 84600.00000 0 12941356.939 17851531.923 -12849250.059 10 0 60605 85500.00000 0 13624245.852 19099474.265 -10046657.827 10 0 60606 0.00000 0 14240605.364 19973271.570 -7049202.104 10 0 60606 900.00000 0 14731934.740 20472352.730 -3915036.895 10 0 60606 1800.00000 0 15042410.079 20609318.938 -704951.534 10 0 60606 2700.00000 0 15121411.317 20409232.448 2518805.809 10 0 60606 3600.00000 0 14925843.490 19908398.912 5693730.804 10 0 60606 4500.00000 0 14422154.738 19152695.675 8758270.229 10 0 60606 5400.00000 0 13587965.736 18195516.659 11653010.387 10 0 60606 6300.00000 0 12413241.542 17095420.404 14321823.932 10 0 60606 7200.00000 0 10900955.894 15913580.124 16712953.167 10 0 60606 8100.00000 0 9067219.098 14711142.666 18780009.251 10 0 60606 9000.00000 0 6940862.903 13546606.977 20482868.431 10 0 60606 9900.00000 0 4562498.246 12473331.673 21788448.350 10 0 60606 10800.00000 0 1983083.577 11537275.882 22671349.836 10 0 60606 11700.00000 0 -737938.356 10775067.737 23114352.012 10 0 60606 12600.00000 0 -3534859.433 10212481.295 23108751.230 10 0 60606 13500.00000 0 -6338190.241 9863385.706 22654537.099 10 0 60606 14400.00000 0 -9077307.606 9729210.871 21760401.802 10 0 60606 15300.00000 0 -11683156.824 9798952.380 20443581.805 10 0 60606 16200.00000 0 -14090897.240 10049716.044 18729534.155 10 0 60606 17100.00000 0 -16242381.789 10447779.727 16651452.593 10 0 60606 18000.00000 0 -18088367.513 10950128.385 14249631.836 10 0 60606 18900.00000 0 -19590364.923 11506398.089 11570691.396 10 0 60606 19800.00000 0 -20722048.801 12061147.221 8666673.279 10 0 60606 20700.00000 0 -21470171.144 12556358.853 5594030.674 10 0 60606 21600.00000 0 -21834937.799 12934068.051 2412527.251 10 0 60606 22500.00000 0 -21829832.917 13139002.128 -815931.218 10 0 60606 23400.00000 0 -21480898.778 13121120.994 -4028509.437 10 0 60606 24300.00000 0 -20825501.808 12837948.694 -7162674.821 10 0 60606 25200.00000 0 -19910637.511 12256596.032 -10157424.267 10 0 60606 26100.00000 0 -18790846.806 11355387.256 -12954480.401 10 0 60606 27000.00000 0 -17525832.761 10125020.765 -15499432.975 10 0 60606 27900.00000 0 -16177879.354 8569213.700 -17742802.413 10 0 60606 28800.00000 0 -14809182.098 6704802.351 -19641004.273 10 0 60606 29700.00000 0 -13479203.742 4561293.490 -21157195.753 10 0 60606 30600.00000 0 -12242166.770 2179884.942 -22261987.995 10 0 60606 31500.00000 0 -11144788.182 -388003.887 -22934010.835 10 0 60606 32400.00000 0 -10224351.375 -3082630.396 -23160319.783 10 0 60606 33300.00000 0 -9507195.306 -5838177.154 -22936638.179 10 0 60606 34200.00000 0 -9007683.286 -8585256.881 -22267430.689 10 0 60606 35100.00000 0 -8727693.411 -11253570.284 -21165807.542 10 0 60606 36000.00000 0 -8656650.617 -13774606.844 -19653261.992 10 0 60606 36900.00000 0 -8772097.685 -16084277.027 -17759246.595 10 0 60606 37800.00000 0 -9040779.969 -18125367.443 -15520596.780 10 0 60606 38700.00000 0 -9420197.230 -19849717.906 -12980813.003 10 0 60606 39600.00000 0 -9860556.487 -21220030.913 -10189215.342 10 0 60606 40500.00000 0 -10307043.123 -22211239.348 -7199986.828 10 0 60606 41400.00000 0 -10702314.206 -22811376.612 -4071123.835 10 0 60606 42300.00000 0 -10989108.757 -23021913.924 -863313.724 10 0 60606 43200.00000 0 -11112864.792 -22857551.811 2361238.673 10 0 60606 44100.00000 0 -11024232.728 -22345475.400 5540013.210 10 0 60606 45000.00000 0 -10681379.052 -21524105.462 8611382.005 10 0 60606 45900.00000 0 -10051982.972 -20441398.075 11515799.318 10 0 60606 46800.00000 0 -9114841.540 -19152764.506 14196950.889 10 0 60606 47700.00000 0 -7861015.136 -17718698.583 16602840.808 10 0 60606 48600.00000 0 -6294464.281 -16202210.908 18686795.251 10 0 60606 49500.00000 0 -4432149.913 -14666177.060 20408364.129 10 0 60606 50400.00000 0 -2303591.499 -13170710.453 21734103.602 10 0 60606 51300.00000 0 50100.187 -11770669.299 22638224.748 10 0 60606 52200.00000 0 2577677.098 -10513401.460 23103096.106 10 0 60606 53100.00000 0 5219636.009 -9436821.147 23119590.450 10 0 60606 54000.00000 0 7910452.173 -8567897.562 22687268.952 10 0 60606 54900.00000 0 10581073.363 -7921618.591 21814398.735 10 0 60606 55800.00000 0 13161571.993 -7500472.943 20517802.811 10 0 60606 56700.00000 0 15583846.173 -7294472.604 18822544.421 10 0 60606 57600.00000 0 17784258.065 -7281714.911 16761450.864 10 0 60606 58500.00000 0 19706100.001 -7429460.920 14374484.999 10 0 60606 59400.00000 0 21301785.523 -7695684.891 11707975.670 10 0 60606 60300.00000 0 22534673.612 -8031029.665 8813721.221 10 0 60606 61200.00000 0 23380449.326 -8381085.191 5747983.121 10 0 60606 62100.00000 0 23828002.557 -8688893.450 2570389.175 10 0 60606 63000.00000 0 23879767.644 -8897572.996 -657232.033 10 0 60606 63900.00000 0 23551509.404 -8952950.934 -3872062.095 10 0 60606 64800.00000 0 22871564.676 -8806089.536 -7011524.586 10 0 60606 65700.00000 0 21879571.736 -8415599.052 -10014512.692 10 0 60606 66600.00000 0 20624741.776 -7749637.341 -12822587.523 10 0 60606 67500.00000 0 19163746.187 -6787510.298 -15381122.794 10 0 60606 68400.00000 0 17558309.615 -5520804.227 -17640372.752 10 0 60606 69300.00000 0 15872611.101 -3954001.331 -19556442.039 10 0 60606 70200.00000 0 14170603.426 -2104551.559 -21092138.460 10 0 60606 71100.00000 0 12513363.819 -2397.154 -22217692.287 10 0 60606 72000.00000 0 10956587.453 2311030.589 -22911328.574 10 0 60606 72900.00000 0 9548328.571 4784300.718 -23159682.105 10 0 60606 73800.00000 0 8327083.231 7357896.260 -22958047.777 10 0 60606 74700.00000 0 7320292.939 9966472.560 -22310462.414 10 0 60606 75600.00000 0 6543330.468 12541366.598 -21229617.246 10 0 60606 76500.00000 0 5999008.765 15013253.365 -19736603.414 10 0 60606 77400.00000 0 5677631.899 17314839.305 -17860495.916 10 0 60606 78300.00000 0 5557584.323 19383481.520 -15637784.371 10 0 60606 79200.00000 0 5606432.228 21163624.558 -13111661.711 10 0 60606 80100.00000 0 5782489.504 22608954.192 -10331184.616 10 0 60606 81000.00000 0 6036781.422 23684179.396 -7350321.814 10 0 60606 81900.00000 0 6315322.655 24366369.140 -4226908.531 10 0 60606 82800.00000 0 6561613.106 24645789.111 -1021527.189 10 0 60606 83700.00000 0 6719246.047 24526204.233 2203664.123 10 0 60606 84600.00000 0 6734518.306 24024635.109 5386132.896 10 0 60606 85500.00000 0 6558932.291 23170579.144 8464180.021 10 0 60607 0.00000 0 6151484.162 22004729.547 11378130.754 10 0 60607 900.00000 0 5480641.180 20577245.371 14071487.542 10 0 60607 1800.00000 0 4525925.067 18945646.700 16492018.820 10 0 60607 2700.00000 0 3279033.354 17172420.805 18592768.304 10 0 60607 3600.00000 0 1744451.098 15322440.564 20332961.763 10 0 60607 4500.00000 0 -60474.120 13460301.989 21678795.712 10 0 60607 5400.00000 0 -2105998.578 11647691.624 22604092.932 10 0 60607 6300.00000 0 -4350972.470 9940893.088 23090812.416 10 0 60607 7200.00000 0 -6744314.162 8388536.300 23129403.956 10 0 60607 8100.00000 0 -9226909.127 7029682.778 22719000.382 10 0 60607 9000.00000 0 -11733856.287 5892326.569 21867443.342 10 0 60607 9900.00000 0 -14196969.835 4992373.180 20591141.435 10 0 60607 10800.00000 0 -16547433.682 4333139.081 18914762.604 10 0 60607 11700.00000 0 -18718498.900 3905392.704 16870765.695 10 0 60607 12600.00000 0 -20648112.200 3687935.257 14498779.250 10 0 60607 13500.00000 0 -22281365.836 3648696.934 11844838.606 10 0 60607 14400.00000 0 -23572666.314 3746302.313 8960495.343 10 0 60607 15300.00000 0 -24487530.591 3932038.624 5901815.930 10 0 60607 16200.00000 0 -25003933.820 4152143.285 2728288.963 10 0 60607 17100.00000 0 -25113151.421 4350313.167 -498337.501 10 0 60607 18000.00000 0 -24820059.534 4470328.329 -3715265.196 10 0 60607 18900.00000 0 -24142880.939 4458677.825 -6859877.015 10 0 60607 19800.00000 0 -23112387.121 4267074.904 -9870965.432 10 0 60607 20700.00000 0 -21770590.403 3854753.601 -12689932.864 10 0 60607 21600.00000 0 -20168981.801 3190448.064 -15261939.568 10 0 60607 22500.00000 0 -18366389.518 2253969.596 -17536975.889 10 0 60607 23400.00000 0 -16426549.000 1037313.699 -19470837.442 10 0 60607 24300.00000 0 -14415487.411 -454750.462 -21025984.083 10 0 60607 25200.00000 0 -12398832.845 -2204633.685 -22172266.157 10 0 60607 26100.00000 0 -10439161.363 -4182425.896 -22887504.357 10 0 60607 27000.00000 0 -8593492.812 -6346920.291 -23157912.651 10 0 60607 27900.00000 0 -6911039.612 -8647119.922 -22978356.926 10 0 60607 28800.00000 0 -5431301.728 -11024164.013 -22352445.159 10 0 60607 29700.00000 0 -4182586.090 -13413593.927 -21292448.213 10 0 60607 30600.00000 0 -3181010.736 -15747864.728 -19819053.435 10 0 60607 31500.00000 0 -2430033.600 -17958998.062 -17960956.346 10 0 60607 32400.00000 0 -1920523.777 -19981266.452 -15754298.654 10 0 60607 33300.00000 0 -1631370.548 -21753797.762 -13241963.565 10 0 60607 34200.00000 0 -1530602.985 -23222991.951 -10472742.098 10 0 60607 35100.00000 0 -1576971.744 -24344650.053 -7500386.421 10 0 60607 36000.00000 0 -1721925.392 -25085727.240 -4382568.385 10 0 60607 36900.00000 0 -1911897.241 -25425637.412 -1179763.296 10 0 60607 37800.00000 0 -2090805.708 -25357055.449 2045919.622 10 0 60607 38700.00000 0 -2202662.393 -24886184.059 5231937.589 10 0 60607 39600.00000 0 -2194177.602 -24032474.511 8316522.332 10 0 60607 40500.00000 0 -2017253.209 -22827813.188 11239872.652 10 0 60607 41400.00000 0 -1631257.539 -21315208.097 13945308.665 10 0 60607 42300.00000 0 -1004986.057 -19547030.207 16380365.646 10 0 60607 43200.00000 0 -118224.838 -17582882.867 18497806.711 10 0 60607 44100.00000 0 1037149.684 -15487187.875 20256535.188 10 0 60607 45000.00000 0 2456581.907 -13326588.398 21622389.446 10 0 60607 45900.00000 0 4122785.172 -11167276.387 22568805.234 10 0 60607 46800.00000 0 6006230.603 -9072355.127 23077333.000 10 0 60607 47700.00000 0 8066157.948 -7099346.137 23138000.280 10 0 60607 48600.00000 0 10252068.143 -5297943.551 22749512.034 10 0 60607 49500.00000 0 12505637.173 -3708108.980 21919284.639 10 0 60607 50400.00000 0 14762973.119 -2358585.845 20663312.246 10 0 60607 51300.00000 0 16957123.737 -1265894.821 19005867.217 10 0 60607 52200.00000 0 19020731.093 -433852.169 16979039.417 10 0 60607 53100.00000 0 20888723.056 146369.058 14622122.258 10 0 60607 54000.00000 0 22500929.462 495637.633 11980856.455 10 0 60607 54900.00000 0 23804513.281 645748.115 9106545.345 10 0 60607 55800.00000 0 24756114.407 637837.481 6055058.565 10 0 60607 56700.00000 0 25323615.361 520401.765 2885743.285 10 0 60607 57600.00000 0 25487453.903 346997.303 -339735.531 10 0 60607 58500.00000 0 25241426.500 173724.833 -3558602.620 10 0 60607 59400.00000 0 24592948.206 56604.231 -6708203.240 10 0 60607 60300.00000 0 23562757.602 48952.451 -9727232.300 10 0 60607 61200.00000 0 22184079.122 198877.228 -12556936.643 10 0 60607 62100.00000 0 20501278.240 546994.089 -15142266.082 10 0 60607 63000.00000 0 18568066.522 1124464.597 -17432949.900 10 0 60607 63900.00000 0 16445332.615 1951439.887 -19384477.314 10 0 60607 64800.00000 0 14198690.840 3035976.098 -20958962.624 10 0 60607 65700.00000 0 11895850.708 4373468.110 -22125878.393 10 0 60607 66600.00000 0 9603917.823 5946625.891 -22862642.813 10 0 60607 67500.00000 0 7386739.044 7725994.766 -23155050.595 10 0 60607 68400.00000 0 5302402.376 9670998.055 -22997539.806 10 0 60607 69300.00000 0 3400995.216 11731458.572 -22393290.377 10 0 60607 70200.00000 0 1722713.234 13849535.598 -21354153.149 10 0 60607 71100.00000 0 296397.297 15961996.654 -19900411.559 10 0 60607 72000.00000 0 -861442.278 18002729.547 -18060381.049 10 0 60607 72900.00000 0 -1747075.297 19905390.241 -15869854.323 10 0 60607 73800.00000 0 -2369458.239 21606076.531 -13371403.305 10 0 60607 74700.00000 0 -2749603.537 23045916.399 -10613551.352 10 0 60607 75600.00000 0 -2919439.719 24173463.487 -7649831.658 10 0 60607 76500.00000 0 -2920211.722 24946800.143 -4537749.927 10 0 60607 77400.00000 0 -2800489.802 25335260.568 -1337671.285 10 0 60607 78300.00000 0 -2613871.717 25320702.432 1888347.189 10 0 60607 79200.00000 0 -2416475.660 24898274.079 5077755.856 10 0 60607 80100.00000 0 -2264330.001 24076645.418 8168720.729 10 0 60607 81000.00000 0 -2210770.201 22877692.937 11101317.313 10 0 60607 81900.00000 0 -2303952.843 21335651.920 13818687.206 10 0 60607 82800.00000 0 -2584591.748 19495771.083 16268135.354 10 0 60607 83700.00000 0 -3084011.862 17412525.429 18402147.143 10 0 60607 84600.00000 0 -3822603.259 15147461.334 20179306.051 10 0 60607 85500.00000 0 -4808740.988 12766763.026 21565094.588 99